Location: *
(57.6000°S, 175.6667°E)
Time: 10:30:33
(UTC+00:00)

Daily predictions for brighter satellites

Satellite Brightness Start Highest point End
(mag) Time Altitude Azimuth Time Altitude Azimuth Time Altitude Azimuth
SL-16 R/B 4.2 14:15:36 10° SSE 14:19:11 28° ESE 14:19:11 28° ESE
SL-16 R/B 4.2 14:49:45 24° SSE 14:49:45 24° SSE 14:52:07 10° SE
Cosmos 2219 Rocket 4.0 14:55:06 28° SE 14:55:06 28° SE 14:57:46 10° SE
Cosmos 2369 Rocket 3.8 15:06:25 31° ESE 15:06:25 31° ESE 15:10:02 10° ENE
Cosmos 2322 Rocket 3.9 15:09:46 27° SSE 15:09:46 27° SSE 15:12:33 10° SSE
SL-16 R/B 4.4 15:14:07 17° ENE 15:15:26 18° E 15:19:07 10° ESE
Cosmos 2360 Rocket 3.7 15:21:40 31° SSE 15:21:40 31° SSE 15:24:43 10° SE
Cosmos 1943 Rocket 3.8 15:28:48 27° ENE 15:28:48 27° ENE 15:31:22 10° ENE
Cosmos 1980 Rocket 4.0 15:30:04 23° S 15:30:04 23° S 15:33:41 10° SE
COSMOS 2428 3.7 15:32:11 43° SE 15:32:11 43° SE 15:36:00 10° SE
ATLAS 5 CENTAUR R/B 3.2 15:32:15 45° SSE 15:32:15 45° SSE 15:36:39 10° ESE
USA 234 3.9 15:37:17 10° ESE 15:43:34 43° NE 15:43:35 43° NE
Okean O Rocket 4.0 15:40:35 10° ENE 15:43:59 22° SE 15:47:25 10° S
Cosmos 2237 Rocket 2.9 15:47:20 52° E 15:47:20 52° E 15:52:06 10° SE
Cosmos 2333 Rocket 3.0 15:50:41 45° SSE 15:50:41 45° SSE 15:54:43 10° SE
SL-16 R/B 2.9 15:59:09 10° SSE 16:04:17 56° SSW 16:04:17 56° SSW
NOSS 3-3 (A) 4.4 16:05:05 66° SW 16:05:35 68° SSW 16:12:29 10° ESE
NOSS 3-3 (C) 4.4 16:05:12 66° SW 16:05:42 68° SSW 16:12:36 10° ESE
Cosmos 2098 Rocket 4.3 16:15:55 63° SW 16:15:55 63° SW 16:21:59 10° S
Lacrosse 5 2.6 16:26:49 45° NE 16:26:49 45° NE 16:31:39 10° ESE
Cosmos 1538 Rocket 4.4 16:28:28 55° S 16:28:28 55° S 16:33:01 10° SSE
Cosmos 1758 Rocket 4.2 16:29:09 53° ENE 16:29:28 54° E 16:33:59 10° SSE
SL-16 R/B 3.7 16:31:36 24° SSW 16:31:58 24° SSW 16:36:37 10° SE
Cosmos 2221 4.2 16:31:40 10° S 16:35:46 34° ESE 16:39:50 10° NE
Cosmos 2219 Rocket 2.8 16:36:49 43° SSW 16:36:49 43° SSW 16:41:50 10° SSE
Meteor 2-16 Rocket 4.4 16:36:45 35° N 16:39:36 84° E 16:45:50 10° SSE
Meteor 2-21 Rocket 4.4 16:37:49 48° NNW 16:39:45 86° WSW 16:46:07 10° SSE
CZ-4B DEB 4.2 16:34:39 10° NNE 16:40:18 87° ESE 16:46:00 10° SSW
Cosmos 1703 4.2 16:42:13 44° SSE 16:42:13 44° SSE 16:45:04 10° SSE
Cosmos 1328 4.3 16:44:47 59° ESE 16:44:47 59° ESE 16:48:24 10° SSE
PAYLOAD B 4.2 16:43:18 10° NNE 16:48:57 88° ESE 16:54:42 10° SSW
Cosmos 2369 Rocket 2.1 16:48:15 59° WSW 16:49:16 75° WNW 16:54:57 10° NNE
Cosmos 1825 Rocket 3.9 16:48:30 46° NNE 16:49:41 66° E 16:54:11 10° SSE
Meteor 2-14 Rocket 4.4 16:48:40 57° WNW 16:49:45 67° WSW 16:56:00 10° S
NOAA 6 4.0 16:44:44 10° NNE 16:49:59 85° ESE 16:55:19 10° SSW
SL-08 R/B 3.3 16:45:22 10° SSE 16:49:52 70° SW 16:49:52 70° SW
Cosmos 1656 Rocket 3.8 16:49:10 29° SSW 16:52:10 76° SE 16:57:48 10° NE
Cosmos 2112 Rocket 4.0 16:51:02 51° NNW 16:52:23 81° ENE 16:57:46 10° SSE
Cosmos 2322 Rocket 3.7 16:51:34 22° SSW 16:52:32 23° SSW 16:57:04 10° SE
CZ-4B R/B 3.4 16:48:37 10° NNE 16:54:19 76° ESE 17:00:01 10° SSW
Envisat 3.3 16:52:12 10° NNE 16:57:18 67° ESE 17:02:27 10° SSW
Cosmos 2263 4.0 16:56:00 40° SW 16:58:10 82° NW 17:03:49 10° NNE
ASTEX 1 3.3 16:53:09 10° N 16:58:12 88° W 17:03:21 10° S
Cosmos 1869 4.2 16:54:38 10° S 16:58:30 49° ESE 17:02:21 10° NNE
SL-16 R/B 2.4 16:56:02 33° NNW 16:58:38 71° ENE 17:04:21 10° SE
Cosmos 1953 Rocket 4.1 16:55:12 14° N 16:58:56 57° E 17:03:19 10° SSE
GENESIS II 4.4 17:00:30 65° SE 17:00:30 65° SE 17:03:51 10° SE
Cosmos 304 Rocket 3.6 16:59:33 53° SW 17:00:41 84° WNW 17:05:33 10° NNE
Cosmos 1745 Rocket 4.0 16:56:16 10° N 17:02:27 79° E 17:08:43 10° SSE
Cosmos 1842 Rocket 4.1 16:58:34 10° S 17:03:05 60° ESE 17:07:30 10° NNE
Meteor 1-21 Rocket 4.2 17:01:30 46° NW 17:03:11 68° WSW 17:09:08 10° SSE
Cosmos 2360 Rocket 3.5 17:03:25 24° SW 17:04:19 25° SSW 17:09:01 10° SE
Cosmos 1244 Rocket 4.4 17:04:14 39° NW 17:06:29 63° WSW 17:12:42 10° S
Cosmos 1680 Rocket 3.4 17:07:26 51° NW 17:08:45 74° WSW 17:14:08 10° SSE
Cosmos 1943 Rocket 2.6 17:10:23 41° NW 17:10:23 41° NW 17:14:50 10° N
H-2A R/B 4.3 17:06:22 10° N 17:08:03 25° N 17:08:03 25° N
NOSS 0 Rocket 4.1 17:10:20 44° W 17:11:53 54° SW 17:18:01 10° SE
Cosmos 158 Rocket 3.8 17:10:57 52° WNW 17:12:07 70° WSW 17:17:14 10° SSE
Cosmos 44 4.0 17:13:08 39° SW 17:14:03 42° SSW 17:18:49 10° SE
Cosmos 1980 Rocket 4.0 17:11:49 14° SSW 17:15:03 23° SSE 17:19:31 10° ESE
COSMOS 2428 3.5 17:14:12 33° SW 17:15:06 35° SSW 17:20:23 10° SE
ATLAS 5 CENTAUR R/B 2.6 17:13:47 31° SW 17:16:41 60° SSE 17:21:56 10° E
SL-08 R/B 4.5 17:11:52 14° NNW 17:17:23 70° WSW 17:23:49 10° S
Cosmos 44 Rocket 3.3 17:17:34 47° WNW 17:19:06 84° SW 17:24:10 10° SE
Nadezhda 1 Rocket 4.1 17:13:21 10° SSW 17:19:30 54° W 17:25:40 10° NNW
Okean O Rocket 1.5 17:15:23 10° NNE 17:19:53 82° WNW 17:24:26 10° SSW
Cosmos 1452 Rocket 3.5 17:19:24 33° SW 17:21:36 57° WNW 17:26:49 10° N
Cosmos 1980 4.0 17:20:38 40° W 17:21:59 48° SW 17:27:34 10° SSE
MOS 1-B 4.4 17:16:58 10° N 17:22:41 53° W 17:28:26 10° SSW
H-2A R/B 2.0 17:19:38 10° SSE 17:24:13 87° WSW 17:27:37 17° NNW
NOAA 12 4.2 17:19:24 10° NNE 17:24:45 81° ESE 17:30:10 10° SSW
USA 234 3.3 17:20:30 10° ESE 17:27:10 76° NNE 17:30:56 28° WNW
AQUARIUS 4.2 17:23:04 10° NNE 17:27:38 87° ESE 17:32:16 10° SSW
Cosmos 1331 Rocket 4.1 17:22:47 12° SSW 17:27:41 80° ESE 17:32:59 10° NNE
ERS-2 2.1 17:25:57 10° SSE 17:29:43 85° ENE 17:32:13 20° NNW
Cosmos 1697 Rocket 4.3 17:25:49 12° SSW 17:30:16 28° SSE 17:35:10 10° E
CORIOLIS 4.1 17:24:53 10° NNE 17:30:18 88° ESE 17:35:47 10° SSW
Cosmos 2237 Rocket 2.6 17:29:09 36° W 17:30:47 45° SW 17:36:19 10° SSE
Cosmos 332 Rocket 4.2 17:32:38 39° WNW 17:32:42 39° WNW 17:37:13 10° N
Cosmos 2333 Rocket 3.3 17:32:41 25° SW 17:34:14 29° SSW 17:39:11 10° SE
Cosmos 1818 4.3 17:32:56 23° SW 17:36:06 48° SSE 17:41:22 10° E
Radarsat Rocket 4.0 17:31:19 10° N 17:37:08 55° WNW 17:43:00 10° SSW
CSL-04 DEB 4.4 17:33:52 10° SSE 17:38:09 62° WSW 17:40:17 27° NW
Orbus 7S? 4.4 17:37:59 35° W 17:40:04 85° N 17:50:08 10° E
Cosmos 923 Rocket 4.5 17:39:23 34° W 17:40:53 42° SW 17:45:55 10° SSE
Cosmos 1709 Rocket 4.0 17:36:28 10° N 17:42:40 86° E 17:49:01 10° SSE
Cosmos 292 Rocket 4.3 17:39:35 10° SSW 17:44:31 62° SE 17:49:24 10° NE
SL-08 ROCKET BODY 4.4 17:40:24 10° NNW 17:46:12 57° WSW 17:52:07 10° S
SL-16 R/B 3.8 17:43:23 10° S 17:48:03 22° SW 17:49:23 21° WSW
CZ-4B R/B 1.7 17:47:57 10° SSE 17:51:33 75° ENE 17:55:07 10° N
SAR-Lupe-4 3.9 17:49:44 10° SSE 17:53:25 69° ENE 17:57:03 10° N
CZ-4 R/B 2.6 17:50:16 10° NE 17:54:14 45° ESE 17:58:11 10° S
Cosmos 1825 4.4 17:54:22 10° NNE 17:57:44 29° E 18:01:08 10° SSE
SMAP 3.2 17:53:26 10° N 17:58:03 52° W 18:02:43 10° SSW
YAOGAN 6 2.8 17:54:35 10° N 17:58:04 47° W 18:01:38 10° SSW
FAST Rocket 4.3 17:55:25 10° S 17:58:07 70° ESE 18:01:16 10° NNE
CZ-2D R/B 4.3 17:54:45 10° NE 17:58:33 48° ESE 18:02:23 10° S
Landsat 5 3.7 17:55:25 10° S 17:59:18 44° WSW 18:01:42 20° NW
Cosmos 1607 4.4 17:54:20 10° NNW 18:00:34 64° NE 18:06:44 10° SE
Cosmos 1943 3.9 17:55:27 10° NNW 18:01:02 58° ENE 18:06:42 10° SE
Feng Yun 1-1 Rocket 4.3 17:55:13 10° NNE 18:01:08 79° WNW 18:07:12 10° SSW
In-Cosmos 22 Rocket 4.5 17:58:09 10° N 18:03:42 71° E 18:09:11 10° SSE
YAOGAN 1 3.5 18:00:53 10° NE 18:05:08 50° ESE 18:09:25 10° S
Meteor 2-2 Rocket 4.4 18:00:05 10° SSW 18:06:06 59° W 18:12:01 10° N
SAR-Lupe-1 4.1 18:04:50 10° SSE 18:08:34 89° W 18:12:14 10° NNW
Lacrosse 5 1.9 18:06:01 21° WNW 18:09:28 81° N 18:14:39 10° E
COSMO-SKYMED 1 4.0 18:07:36 10° SSE 18:11:52 43° E 18:16:04 10° N
Cosmos 2221 2.9 18:09:13 10° SSW 18:13:28 43° W 18:17:40 10° NNW
Cosmos 1048 Rocket 4.3 18:10:53 10° NNW 18:16:16 75° ENE 18:21:45 10° SSE
H-2A R/B 3.4 18:12:25 10° NE 18:17:25 42° ESE 18:22:35 10° S
SL-16 R/B 3.9 18:13:30 10° SW 18:18:01 23° S 18:22:31 10° ESE
Cosmos 2181 Rocket 4.2 18:12:39 10° SSW 18:18:56 51° W 18:25:11 10° NNW
Cosmos 1076 Rocket 3.8 18:15:10 10° N 18:19:35 74° E 18:24:01 10° SSE
CZ-4C R/B 4.2 18:18:43 10° S 18:21:15 20° WSW 18:21:15 20° WSW
Cosmos 1110 Rocket 4.3 18:16:27 10° SW 18:21:26 44° WNW 18:26:22 10° N
Cosmos 2219 Rocket 3.6 18:18:32 15° SW 18:21:47 23° SSW 18:26:15 10° SE
Resurs 01 Rocket 4.4 18:19:54 10° ESE 18:21:54 13° SE 18:23:53 10° SSE
USA 81 4.1 18:20:03 10° N 18:25:24 89° E 18:30:49 10° S
IRS-1C Rocket 4.2 18:21:35 10° N 18:26:50 60° WNW 18:32:10 10° SSW
ARGOS Delta rocket 4.4 18:23:46 10° NNW 18:27:46 32° W 18:31:53 10° SSW
CSL-04 Rocket 4.2 18:23:00 10° NNE 18:28:34 66° ESE 18:34:11 10° SSW
Helios 1A Rocket 3.1 18:25:11 10° N 18:29:19 52° WNW 18:33:30 10° SSW
Cosmos 2369 Rocket 3.5 18:30:05 15° WSW 18:32:26 19° W 18:36:18 10° NW
OBJECT-B 3.9 18:31:35 10° ESE 18:32:46 11° SE 18:33:58 10° SSE
Cosmos 1939 Rocket 2.9 18:28:40 10° N 18:32:52 73° WNW 18:37:04 10° SSW
Cosmos 1869 4.4 18:31:20 10° SW 18:34:32 24° W 18:37:43 10° NW
CZ-4B R/B 4.1 18:30:38 10° NNW 18:35:26 27° W 18:40:15 10° SSW
Envisat 3.9 18:32:24 10° NNW 18:36:46 27° W 18:41:11 10° SSW
Cosmos 1302 Rocket 4.1 18:31:34 10° SW 18:36:54 62° WNW 18:42:08 10° NNE
PSLV R/B 4.2 18:33:01 10° SSE 18:37:21 79° ENE 18:41:39 10° NNW
Cosmos 2322 Rocket 3.9 18:34:00 10° SW 18:38:32 23° SSE 18:43:02 10° ESE
Kosmos-1783 2.9 18:35:37 10° NW 18:39:52 80° NNE 18:41:37 10° ESE
ARGOS 4.2 18:35:19 10° NE 18:40:35 49° ESE 18:45:53 10° S
Cosmos 1328 Rocket 4.0 18:36:52 10° S 18:41:20 66° ESE 18:45:42 10° NNE
SL-16 R/B 2.8 18:37:56 10° WNW 18:43:12 39° SW 18:48:34 10° SSE
Okean-O 2.7 18:40:00 10° N 18:44:27 60° WNW 18:48:58 10° SSW
Cosmos 1892 3.0 18:45:27 10° NW 18:49:10 46° WSW 18:52:56 10° S
Cosmos 2360 Rocket 3.9 18:45:52 10° SW 18:50:14 22° S 18:54:36 10° ESE
Cosmos 1689 Rocket 2.5 18:52:18 10° S 18:55:15 42° WSW 18:58:09 10° NW
ADEOS Rocket 3.1 18:49:53 10° SSE 18:55:48 65° WSW 19:02:18 10° NW
Cosmos 44 4.3 18:51:32 10° WSW 18:56:16 36° S 19:00:46 10° ESE
Okean O Rocket 3.2 18:54:17 10° WNW 18:56:59 15° W 18:59:40 10° SW
Cosmos 2184 Rocket 4.0 18:52:16 10° NNW 18:58:28 74° WSW 19:04:47 10° S
H-2A R/B 3.5 18:56:19 10° S 18:59:36 20° SW 19:02:50 10° W
HJ-1C 3.5 18:56:31 10° NNE 18:59:55 81° ESE 19:03:22 10° SSW
SKYMED 2 3.6 18:55:34 10° SSE 19:00:01 81° WSW 19:04:27 10° NNW
DNEPR-1 R/B 4.1 18:55:20 10° WNW 19:00:12 68° SSW 19:06:13 10° SE
Cosmos 1980 Rocket 3.3 18:55:11 10° SSW 19:00:34 41° SE 19:05:57 10° ENE
COSMOS 2428 4.2 18:56:36 10° SW 19:01:04 22° S 19:05:31 10° SE
Cosmos 44 Rocket 4.0 18:56:23 10° W 19:01:11 40° SSW 19:05:54 10° SE
ATLAS 5 CENTAUR R/B 2.2 18:55:42 10° WSW 19:01:33 61° NW 19:06:26 10° NE
ERS-2 3.8 19:00:20 10° SSW 19:02:48 17° SW 19:05:15 10° W
Cosmos 2074 Rocket 4.0 18:56:49 10° NNW 19:03:08 68° WSW 19:09:31 10° S
SJ-6B 4.3 19:00:40 10° NE 19:04:17 37° ESE 19:08:02 10° S
Nadezhda 3 Rocket 4.1 18:58:55 10° SSW 19:05:13 61° W 19:11:30 10° N
Genesis I 3.7 19:01:39 10° SW 19:05:37 58° SSE 19:09:32 10° ENE
Cosmos 1340 2.8 19:02:54 10° N 19:06:44 83° ENE 19:10:37 10° SSE
Cosmos 1606 2.9 19:04:25 10° SSW 19:08:13 51° W 19:12:01 10° N
CSL-04 Debris 4.2 19:04:04 10° N 19:09:31 70° WNW 19:15:05 10° SSW
USA 234 3.4 19:03:44 10° E 19:10:24 86° N 19:17:05 10° W
SL-24 R/B - RUBIN 2 3.6 19:06:29 10° SW 19:10:46 84° SE 19:15:15 10° NE
Cosmos 1992 Rocket 4.1 19:06:33 10° SSW 19:11:50 72° WNW 19:17:05 10° NNE
Cosmos 1151 Rocket 3.1 19:08:28 10° SSW 19:12:57 67° W 19:17:22 10° N
Cosmos 2058 3.6 19:09:25 10° NW 19:13:23 36° WSW 19:17:22 10° S
Cosmos 1656 3.8 19:08:18 10° SW 19:14:06 88° NW 19:19:46 10° NNE
Cosmos 1697 Rocket 3.1 19:09:32 10° SW 19:15:16 66° SE 19:20:59 10° NE
Cosmos 494 Rocket 4.1 19:10:38 10° NW 19:15:57 68° SW 19:21:18 10° SSE
Cosmos 2237 Rocket 3.5 19:11:43 10° WSW 19:16:16 24° SSW 19:20:51 10° SE
